Teterboro, NJ

4:50 AM EDT on September 27, 2016 (GMT -0400)
Teterboro

Weather History for KTEB - February, 2014

Change the Weather History Date:

Friday, February 14, 2014

  Actual Average Record
Temperature  
Mean Temperature 36 °F -  
Max Temperature 42 °F 39 °F 55 °F (2011)
Min Temperature 30 °F 25 °F 0 °F (2016)
Degree Days  
Heating Degree Days 29    
Moisture  
Dew Point 26 °F    
Average Humidity 71    
Maximum Humidity 89    
Minimum Humidity 47    
Precipitation  
Precipitation 0.27 in - - ()
Snow  
Snow 0.00 in - - ()
Snow Depth 8.00 in    
Sea Level Pressure  
Sea Level Pressure 29.30 in    
Wind  
Wind Speed 12 mph (WNW)    
Max Wind Speed 20 mph    
Max Gust Speed 30 mph    
Visibility 6 miles    
Events Fog , Snow    
Averages and records for this station are not official NWS values.
T = Trace of Precipitation, MM = Missing Value Source: NWS Daily Summary

Daily Weather History Graph

Daily Weather History Graph

Search for Another Location

Airport or City:

Trip Planner

Search our weather history database for the weather conditions in past years. The results will help you decide how hot, cold, wet, or windy it might be!

Date:

Astronomy

Feb. 14, 2014 Rise Set
Actual Time 6:51 AM EST 5:29 PM EST
Civil Twilight 6:23 AM EST 5:57 PM EST
Nautical Twilight 5:51 AM EST 6:30 PM EST
Astronomical Twilight 5:19 AM EST 7:01 PM EST
Moon 5:31 PM EST (2/14) 6:16 AM EST (2/14)
Length of Visible Light 11h 34m
Length of Day
10h 37m
Full, 100% of the Moon is Illuminated
Feb 14
Full
Feb 14
Full
Feb 22
Last Quarter
Mar 1
New
Mar 8
First Quarter

Hourly Weather History & Observations

Time (EST) Temp. Windchill Dew Point Humidity Pressure Visibility Wind Dir Wind Speed Gust Speed Precip Events Conditions
12:30 AM 33.8 °F 24.8 °F 30.2 °F 87% 29.03 in 2.5 mi NNW 12.7 mph - 0.03 in Snow Snow
12:51 AM 34.0 °F 24.2 °F 30.0 °F 85% 29.03 in 1.0 mi NNW 15.0 mph - 0.06 in Snow Snow
1:23 AM 33.8 °F 25.3 °F 30.2 °F 87% 29.05 in 0.5 mi NW 11.5 mph - 0.04 in Fog , Snow Snow
1:51 AM 34.0 °F 28.0 °F 30.9 °F 89% 29.06 in 0.5 mi NW 6.9 mph - 0.07 in Fog , Snow Snow
1:58 AM 33.8 °F 27.0 °F 30.2 °F 87% 29.06 in 1.0 mi WNW 8.1 mph - 0.00 in Snow Snow
2:09 AM 33.8 °F 25.8 °F 30.2 °F 87% 29.06 in 0.5 mi NW 10.4 mph - 0.01 in Snow Snow
2:23 AM 33.8 °F 25.3 °F 30.2 °F 87% 29.06 in 0.5 mi WNW 11.5 mph - 0.03 in Fog , Snow Snow
2:30 AM 33.8 °F 24.3 °F 30.2 °F 87% 29.06 in 0.5 mi NW 13.8 mph - 0.05 in Fog , Snow Snow
2:51 AM 33.1 °F 24.9 °F 30.0 °F 89% 29.06 in 0.5 mi NW 10.4 mph - 0.10 in Fog , Snow Snow
3:08 AM 33.8 °F 25.8 °F 30.2 °F 87% 29.07 in 1.0 mi WNW 10.4 mph - 0.02 in Snow Snow
3:38 AM 33.8 °F 24.8 °F 30.2 °F 87% 29.07 in 2.0 mi WNW 12.7 mph 19.6 mph 0.04 in Snow Snow
3:49 AM 33.8 °F 23.9 °F 28.4 °F 81% 29.08 in 3.0 mi WNW 15.0 mph - 0.04 in Snow Snow
3:51 AM 34.0 °F 23.8 °F 28.9 °F 82% 29.08 in 3.0 mi WNW 16.1 mph - 0.04 in Snow Snow
4:03 AM 33.8 °F 24.3 °F 28.4 °F 81% 29.09 in 3.0 mi WNW 13.8 mph - 0.00 in Snow Snow
4:10 AM 33.8 °F 24.3 °F 28.4 °F 81% 29.09 in 3.0 mi WNW 13.8 mph 21.9 mph 0.00 in Snow Snow
4:35 AM 33.8 °F 24.8 °F 28.4 °F 81% 29.12 in 1.0 mi West 12.7 mph - 0.00 in Snow Snow
4:51 AM 33.1 °F 22.2 °F 28.0 °F 82% 29.13 in 1.0 mi West 17.3 mph 24.2 mph 0.00 in Snow Snow
4:58 AM 33.8 °F 23.5 °F 28.4 °F 81% 29.13 in 2.0 mi West 16.1 mph 29.9 mph 0.00 in Snow Snow
5:15 AM 32.0 °F 22.1 °F 26.6 °F 80% 29.15 in 3.0 mi West 13.8 mph 24.2 mph 0.00 in Snow Snow
5:51 AM 33.1 °F 22.6 °F 25.0 °F 72% 29.18 in 10.0 mi West 16.1 mph 23.0 mph 0.00 in   Overcast
6:51 AM 34.0 °F 25.0 °F 25.0 °F 70% 29.21 in 10.0 mi WNW 12.7 mph 20.7 mph N/A   Mostly Cloudy
7:51 AM 36.0 °F 29.0 °F 25.0 °F 64% 29.26 in 10.0 mi NW 9.2 mph 19.6 mph N/A   Partly Cloudy
8:51 AM 37.9 °F 33.5 °F 26.1 °F 62% 29.31 in 10.0 mi Variable 5.8 mph - N/A   Clear
9:51 AM 39.0 °F 30.6 °F 25.0 °F 57% 29.36 in 10.0 mi West 15.0 mph 20.7 mph N/A   Partly Cloudy
10:51 AM 39.0 °F 31.8 °F 25.0 °F 57% 29.40 in 10.0 mi WSW 11.5 mph 23.0 mph N/A   Clear
11:51 AM 41.0 °F 32.2 °F 24.1 °F 51% 29.43 in 10.0 mi West 18.4 mph 24.2 mph N/A   Clear
12:51 PM 42.1 °F 34.5 °F 23.0 °F 47% 29.45 in 10.0 mi West 15.0 mph 26.5 mph N/A   Partly Cloudy
1:51 PM 42.1 °F 34.2 °F 24.1 °F 49% 29.48 in 10.0 mi West 16.1 mph 27.6 mph N/A   Scattered Clouds
2:51 PM 42.1 °F 33.3 °F 23.0 °F 47% 29.52 in 10.0 mi West 19.6 mph 23.0 mph N/A   Mostly Cloudy
3:51 PM 41.0 °F 34.3 °F 23.0 °F 49% 29.55 in 10.0 mi West 11.5 mph 23.0 mph N/A   Partly Cloudy
4:51 PM 41.0 °F 34.3 °F 24.1 °F 51% 29.58 in 10.0 mi West 11.5 mph - N/A   Partly Cloudy
5:51 PM 39.9 °F 36.7 °F 21.9 °F 49% 29.63 in 10.0 mi Variable 4.6 mph - N/A   Clear
6:51 PM 37.9 °F 31.5 °F 24.1 °F 57% 29.67 in 10.0 mi SW 9.2 mph - N/A   Clear
7:51 PM 39.0 °F 34.0 °F 23.0 °F 53% 29.74 in 10.0 mi West 6.9 mph - N/A   Partly Cloudy
8:51 PM 39.0 °F 33.4 °F 21.9 °F 50% 29.75 in 10.0 mi WSW 8.1 mph - N/A   Clear
9:51 PM 35.1 °F - 21.9 °F 59% 29.76 in 10.0 mi Calm Calm - N/A   Clear
10:51 PM 30.0 °F 25.2 °F 21.9 °F 72% 29.78 in 10.0 mi SSW 4.6 mph - 0.00 in   Clear
11:51 PM 30.9 °F - 21.9 °F 69% 29.78 in 10.0 mi Calm Calm - N/A   Clear